MT WASHINGTON (MTW)

Elevation: 920' · LOS ANGELES R basin · Operator: Los Angeles County Fire Dept

Query executed Friday at 5:53:38   clock

Provisional data, subject to change.
Select a sensor type for a plot of data.

Earlier

Date   /   Time   RAIN     TEMP     REL HUM     BAR PRE     FUEL MS     FUEL TP     WIND SP     WIND DR     PEAK WS     PEAK WD     SOLAR R     BAT VOL    
(PDT)INCHES   DEG F   %   INCHES   %   DEG F   MPH   DEG   MPH   DEG   W/M^2   VOLTS  
04/17/2014 06:00 5.00 56 86 -- 16 57 -- -- -- -- 9.00 12.3
04/17/2014 07:00 5.00 58 83 -- 15 59 -- -- -- -- 54.00 12.5
04/17/2014 08:00 5.00 58 81 -- 15 61 -- -- -- -- 115.00 13.1
04/17/2014 09:00 5.00 63 71 -- 14 66 -- -- -- -- 265.00 13.6
04/17/2014 10:00 5.00 64 67 -- 14 71 -- -- -- -- 558.00 13.5
04/17/2014 11:00 5.00 69 58 -- 13 83 -- -- -- -- 622.00 13.5
04/17/2014 12:00 5.00 69 56 -- 12 78 -- -- -- -- 594.00 13.6
04/17/2014 13:00 5.00 71 48 -- 11 85 -- -- -- -- 803.00 13.5
04/17/2014 14:00 5.00 71 52 -- 10 78 -- -- -- -- 454.00 13.6
04/17/2014 15:00 5.00 69 55 -- 10 74 -- -- -- -- 507.00 13.6
04/17/2014 16:00 5.00 66 63 -- 10 68 -- -- -- -- 231.00 13.6
04/17/2014 17:00 5.00 64 67 -- 11 65 -- -- -- -- 153.00 13.5
04/17/2014 18:00 5.00 61 74 -- 11 62 -- -- -- -- 65.00 12.6
04/17/2014 19:00 5.00 59 79 -- 12 60 -- -- -- -- 5.00 12.6
04/17/2014 20:00 5.00 58 82 -- 13 59 -- -- -- -- 0.00 12.5
04/17/2014 21:00 5.00 57 83 -- 13 58 -- -- -- -- 0.00 12.5
04/17/2014 22:00 5.00 57 84 -- 14 58 -- -- -- -- 0.00 12.5
04/17/2014 23:00 5.00 57 84 -- 14 58 -- -- -- -- 0.00 12.5
04/18/2014 00:00 5.00 58 83 -- 14 58 -- -- -- -- 0.00 12.5
04/18/2014 01:00 5.00 57 82 -- 14 58 -- -- -- -- 0.00 12.5
04/18/2014 02:00 5.00 57 81 -- 14 58 -- -- -- -- 0.00 12.4
04/18/2014 03:00 5.00 57 83 -- 14 58 -- -- -- -- 0.00 12.4
04/18/2014 04:00 5.00 57 82 -- 14 58 -- -- -- -- 0.00 12.4
04/18/2014 05:00 5.00 57 84 -- 14 57 -- -- -- -- 0.00 12.3

Later | Latest

Warning! This data is preliminary and subject to revision.

Download Data Now Download Data Now | Show MTW Map | 24 Hours MTW Data | Plot all MTW Sensors | Daily MTW Data | MTW Info